Location: Moscow
(30.9132°N, 94.8252°W)
Time: 04:55:56
(UTC+00:00)

Delta 2 Rocket - Pass Details

Date: 15 November 2025
Orbit: 357 x 510 km, 35.6° (Epoch: 04 December)

Event Time Altitude Azimuth Distance (km) Brightness Sun altitude
Rises 00:28:45 0° 288° (WNW) 2,644 7.9 -14.5°
Reaches altitude 10° 00:31:00 10° 286° (WNW) 1,756 6.9 -15.0°
Maximum altitude 00:35:03 69° 203° (SSW) 555 3.4 -15.9°
Enters shadow 00:37:26 23° 124° (SE) 1,129 4.5 -16.4°
